locationName,lineName,date,time,countIn,countOut
���X�X����,2_1_2,2022/9/1,0:00,0,0
���X�X����,2_1_2,2022/9/1,1:00,0,0
���X�X����,2_1_2,2022/9/1,2:00,0,0
���X�X����,2_1_2,2022/9/1,3:00,0,0
���X�X����,2_1_2,2022/9/1,4:00,1,1
���X�X����,2_1_2,2022/9/1,5:00,2,2
���X�X����,2_1_2,2022/9/1,6:00,2,2
���X�X����,2_1_2,2022/9/1,7:00,5,5
���X�X����,2_1_2,2022/9/1,8:00,3,3
���X�X����,2_1_2,2022/9/1,9:00,6,6
���X�X����,2_1_2,2022/9/1,10:00,8,8
���X�X����,2_1_2,2022/9/1,11:00,10,10
���X�X����,2_1_2,2022/9/1,12:00,5,5
���X�X����,2_1_2,2022/9/1,13:00,10,10
���X�X����,2_1_2,2022/9/1,14:00,8,8
���X�X����,2_1_2,2022/9/1,15:00,1,1
���X�X����,2_1_2,2022/9/1,16:00,8,8
���X�X����,2_1_2,2022/9/1,17:00,12,12
���X�X����,2_1_2,2022/9/1,18:00,9,9
���X�X����,2_1_2,2022/9/1,19:00,7,7
���X�X����,2_1_2,2022/9/1,20:00,5,5
���X�X����,2_1_2,2022/9/1,21:00,3,3
���X�X����,2_1_2,2022/9/1,22:00,1,1
���X�X����,2_1_2,2022/9/1,23:00,0,0
���X�X����,2_1_2,2022/9/2,0:00,0,0
���X�X����,2_1_2,2022/9/2,1:00,0,0
���X�X����,2_1_2,2022/9/2,2:00,0,0
���X�X����,2_1_2,2022/9/2,3:00,0,0
���X�X����,2_1_2,2022/9/2,4:00,0,0
���X�X����,2_1_2,2022/9/2,5:00,0,0
���X�X����,2_1_2,2022/9/2,6:00,1,1
���X�X����,2_1_2,2022/9/2,7:00,4,4
���X�X����,2_1_2,2022/9/2,8:00,4,4
���X�X����,2_1_2,2022/9/2,9:00,7,7
���X�X����,2_1_2,2022/9/2,10:00,6,6
���X�X����,2_1_2,2022/9/2,11:00,7,7
���X�X����,2_1_2,2022/9/2,12:00,12,12
���X�X����,2_1_2,2022/9/2,13:00,12,12
���X�X����,2_1_2,2022/9/2,14:00,8,8
���X�X����,2_1_2,2022/9/2,15:00,15,15
���X�X����,2_1_2,2022/9/2,16:00,19,19
���X�X����,2_1_2,2022/9/2,17:00,9,9
���X�X����,2_1_2,2022/9/2,18:00,11,11
���X�X����,2_1_2,2022/9/2,19:00,8,8
���X�X����,2_1_2,2022/9/2,20:00,2,2
���X�X����,2_1_2,2022/9/2,21:00,7,7
���X�X����,2_1_2,2022/9/2,22:00,2,2
���X�X����,2_1_2,2022/9/2,23:00,0,0
���X�X����,2_1_2,2022/9/3,0:00,1,1
���X�X����,2_1_2,2022/9/3,1:00,0,0
���X�X����,2_1_2,2022/9/3,2:00,0,0
���X�X����,2_1_2,2022/9/3,3:00,0,0
���X�X����,2_1_2,2022/9/3,4:00,1,1
���X�X����,2_1_2,2022/9/3,5:00,0,0
���X�X����,2_1_2,2022/9/3,6:00,6,6
���X�X����,2_1_2,2022/9/3,7:00,3,3
���X�X����,2_1_2,2022/9/3,8:00,13,13
���X�X����,2_1_2,2022/9/3,9:00,14,14
���X�X����,2_1_2,2022/9/3,10:00,16,16
���X�X����,2_1_2,2022/9/3,11:00,14,14
���X�X����,2_1_2,2022/9/3,12:00,21,21
���X�X����,2_1_2,2022/9/3,13:00,13,13
���X�X����,2_1_2,2022/9/3,14:00,26,26
���X�X����,2_1_2,2022/9/3,15:00,14,14
���X�X����,2_1_2,2022/9/3,16:00,14,14
���X�X����,2_1_2,2022/9/3,17:00,15,15
���X�X����,2_1_2,2022/9/3,18:00,14,14
���X�X����,2_1_2,2022/9/3,19:00,8,8
���X�X����,2_1_2,2022/9/3,20:00,5,5
���X�X����,2_1_2,2022/9/3,21:00,3,3
���X�X����,2_1_2,2022/9/3,22:00,3,3
���X�X����,2_1_2,2022/9/3,23:00,1,1
���X�X����,2_1_2,2022/9/4,0:00,0,0
���X�X����,2_1_2,2022/9/4,1:00,0,0
���X�X����,2_1_2,2022/9/4,2:00,0,0
���X�X����,2_1_2,2022/9/4,3:00,0,0
���X�X����,2_1_2,2022/9/4,4:00,0,0
���X�X����,2_1_2,2022/9/4,5:00,1,1
���X�X����,2_1_2,2022/9/4,6:00,5,5
���X�X����,2_1_2,2022/9/4,7:00,2,2
���X�X����,2_1_2,2022/9/4,8:00,2,2
���X�X����,2_1_2,2022/9/4,9:00,12,12
���X�X����,2_1_2,2022/9/4,10:00,13,13
���X�X����,2_1_2,2022/9/4,11:00,15,15
���X�X����,2_1_2,2022/9/4,12:00,14,14
���X�X����,2_1_2,2022/9/4,13:00,15,15
���X�X����,2_1_2,2022/9/4,14:00,18,18
���X�X����,2_1_2,2022/9/4,15:00,10,10
���X�X����,2_1_2,2022/9/4,16:00,10,10
���X�X����,2_1_2,2022/9/4,17:00,8,8
���X�X����,2_1_2,2022/9/4,18:00,7,7
���X�X����,2_1_2,2022/9/4,19:00,6,6
���X�X����,2_1_2,2022/9/4,20:00,7,7
���X�X����,2_1_2,2022/9/4,21:00,1,1
���X�X����,2_1_2,2022/9/4,22:00,0,0
���X�X����,2_1_2,2022/9/4,23:00,2,2
���X�X����,2_1_2,2022/9/5,0:00,0,0
���X�X����,2_1_2,2022/9/5,1:00,0,0
���X�X����,2_1_2,2022/9/5,2:00,0,0
���X�X����,2_1_2,2022/9/5,3:00,0,0
���X�X����,2_1_2,2022/9/5,4:00,1,1
���X�X����,2_1_2,2022/9/5,5:00,2,2
���X�X����,2_1_2,2022/9/5,6:00,1,1
���X�X����,2_1_2,2022/9/5,7:00,4,4
���X�X����,2_1_2,2022/9/5,8:00,3,3
���X�X����,2_1_2,2022/9/5,9:00,5,5
���X�X����,2_1_2,2022/9/5,10:00,14,14
���X�X����,2_1_2,2022/9/5,11:00,22,22
���X�X����,2_1_2,2022/9/5,12:00,11,11
���X�X����,2_1_2,2022/9/5,13:00,9,9
���X�X����,2_1_2,2022/9/5,14:00,11,11
���X�X����,2_1_2,2022/9/5,15:00,4,4
���X�X����,2_1_2,2022/9/5,16:00,9,9
���X�X����,2_1_2,2022/9/5,17:00,10,10
���X�X����,2_1_2,2022/9/5,18:00,8,8
���X�X����,2_1_2,2022/9/5,19:00,12,12
���X�X����,2_1_2,2022/9/5,20:00,8,8
���X�X����,2_1_2,2022/9/5,21:00,9,9
���X�X����,2_1_2,2022/9/5,22:00,1,1
���X�X����,2_1_2,2022/9/5,23:00,2,2
���X�X����,2_1_2,2022/9/6,0:00,0,0
���X�X����,2_1_2,2022/9/6,1:00,0,0
���X�X����,2_1_2,2022/9/6,2:00,1,1
���X�X����,2_1_2,2022/9/6,3:00,0,0
���X�X����,2_1_2,2022/9/6,4:00,0,0
���X�X����,2_1_2,2022/9/6,5:00,0,0
���X�X����,2_1_2,2022/9/6,6:00,1,1
���X�X����,2_1_2,2022/9/6,7:00,5,5
���X�X����,2_1_2,2022/9/6,8:00,1,1
���X�X����,2_1_2,2022/9/6,9:00,6,6
���X�X����,2_1_2,2022/9/6,10:00,3,3
���X�X����,2_1_2,2022/9/6,11:00,6,6
���X�X����,2_1_2,2022/9/6,12:00,11,11
���X�X����,2_1_2,2022/9/6,13:00,6,6
���X�X����,2_1_2,2022/9/6,14:00,5,5
���X�X����,2_1_2,2022/9/6,15:00,5,5
���X�X����,2_1_2,2022/9/6,16:00,7,7
���X�X����,2_1_2,2022/9/6,17:00,12,12
���X�X����,2_1_2,2022/9/6,18:00,10,10
���X�X����,2_1_2,2022/9/6,19:00,10,10
���X�X����,2_1_2,2022/9/6,20:00,6,6
���X�X����,2_1_2,2022/9/6,21:00,2,2
���X�X����,2_1_2,2022/9/6,22:00,1,1
���X�X����,2_1_2,2022/9/6,23:00,0,0
���X�X����,2_1_2,2022/9/7,0:00,0,0
���X�X����,2_1_2,2022/9/7,1:00,0,0
���X�X����,2_1_2,2022/9/7,2:00,0,0
���X�X����,2_1_2,2022/9/7,3:00,0,0
���X�X����,2_1_2,2022/9/7,4:00,1,1
���X�X����,2_1_2,2022/9/7,5:00,0,0
���X�X����,2_1_2,2022/9/7,6:00,4,4
���X�X����,2_1_2,2022/9/7,7:00,7,7
���X�X����,2_1_2,2022/9/7,8:00,2,2
���X�X����,2_1_2,2022/9/7,9:00,4,4
���X�X����,2_1_2,2022/9/7,10:00,4,4
���X�X����,2_1_2,2022/9/7,11:00,4,4
���X�X����,2_1_2,2022/9/7,12:00,10,10
���X�X����,2_1_2,2022/9/7,13:00,12,12
���X�X����,2_1_2,2022/9/7,14:00,7,7
���X�X����,2_1_2,2022/9/7,15:00,8,8
���X�X����,2_1_2,2022/9/7,16:00,12,12
���X�X����,2_1_2,2022/9/7,17:00,17,17
���X�X����,2_1_2,2022/9/7,18:00,8,8
���X�X����,2_1_2,2022/9/7,19:00,14,14
���X�X����,2_1_2,2022/9/7,20:00,9,9
���X�X����,2_1_2,2022/9/7,21:00,3,3
���X�X����,2_1_2,2022/9/7,22:00,0,0
���X�X����,2_1_2,2022/9/7,23:00,0,0
���X�X����,2_1_2,2022/9/8,0:00,0,0
���X�X����,2_1_2,2022/9/8,1:00,0,0
���X�X����,2_1_2,2022/9/8,2:00,0,0
���X�X����,2_1_2,2022/9/8,3:00,0,0
���X�X����,2_1_2,2022/9/8,4:00,0,0
���X�X����,2_1_2,2022/9/8,5:00,1,1
���X�X����,2_1_2,2022/9/8,6:00,4,4
���X�X����,2_1_2,2022/9/8,7:00,7,7
���X�X����,2_1_2,2022/9/8,8:00,8,8
���X�X����,2_1_2,2022/9/8,9:00,11,11
���X�X����,2_1_2,2022/9/8,10:00,6,6
���X�X����,2_1_2,2022/9/8,11:00,13,13
���X�X����,2_1_2,2022/9/8,12:00,9,9
���X�X����,2_1_2,2022/9/8,13:00,0,0
���X�X����,2_1_2,2022/9/8,14:00,13,13
���X�X����,2_1_2,2022/9/8,15:00,7,7
���X�X����,2_1_2,2022/9/8,16:00,13,13
���X�X����,2_1_2,2022/9/8,17:00,15,15
���X�X����,2_1_2,2022/9/8,18:00,7,7
���X�X����,2_1_2,2022/9/8,19:00,9,9
���X�X����,2_1_2,2022/9/8,20:00,4,4
���X�X����,2_1_2,2022/9/8,21:00,3,3
���X�X����,2_1_2,2022/9/8,22:00,2,2
���X�X����,2_1_2,2022/9/8,23:00,0,0
���X�X����,2_1_2,2022/9/9,0:00,0,0
���X�X����,2_1_2,2022/9/9,1:00,0,0
���X�X����,2_1_2,2022/9/9,2:00,0,0
���X�X����,2_1_2,2022/9/9,3:00,0,0
���X�X����,2_1_2,2022/9/9,4:00,0,0
���X�X����,2_1_2,2022/9/9,5:00,0,0
���X�X����,2_1_2,2022/9/9,6:00,2,2
���X�X����,2_1_2,2022/9/9,7:00,7,7
���X�X����,2_1_2,2022/9/9,8:00,3,3
���X�X����,2_1_2,2022/9/9,9:00,7,7
���X�X����,2_1_2,2022/9/9,10:00,6,6
���X�X����,2_1_2,2022/9/9,11:00,15,15
���X�X����,2_1_2,2022/9/9,12:00,8,8
���X�X����,2_1_2,2022/9/9,13:00,16,16
���X�X����,2_1_2,2022/9/9,14:00,11,11
���X�X����,2_1_2,2022/9/9,15:00,10,10
���X�X����,2_1_2,2022/9/9,16:00,9,9
���X�X����,2_1_2,2022/9/9,17:00,14,14
���X�X����,2_1_2,2022/9/9,18:00,4,4
���X�X����,2_1_2,2022/9/9,19:00,4,4
���X�X����,2_1_2,2022/9/9,20:00,9,9
���X�X����,2_1_2,2022/9/9,21:00,1,1
���X�X����,2_1_2,2022/9/9,22:00,0,0
���X�X����,2_1_2,2022/9/9,23:00,0,0
���X�X����,2_1_2,2022/9/10,0:00,0,0
���X�X����,2_1_2,2022/9/10,1:00,0,0
���X�X����,2_1_2,2022/9/10,2:00,0,0
���X�X����,2_1_2,2022/9/10,3:00,0,0
���X�X����,2_1_2,2022/9/10,4:00,0,0
���X�X����,2_1_2,2022/9/10,5:00,0,0
���X�X����,2_1_2,2022/9/10,6:00,4,4
���X�X����,2_1_2,2022/9/10,7:00,7,7
���X�X����,2_1_2,2022/9/10,8:00,9,9
���X�X����,2_1_2,2022/9/10,9:00,18,18
���X�X����,2_1_2,2022/9/10,10:00,14,14
���X�X����,2_1_2,2022/9/10,11:00,24,24
���X�X����,2_1_2,2022/9/10,12:00,10,10
���X�X����,2_1_2,2022/9/10,13:00,17,17
���X�X����,2_1_2,2022/9/10,14:00,26,26
���X�X����,2_1_2,2022/9/10,15:00,14,14
���X�X����,2_1_2,2022/9/10,16:00,9,9
���X�X����,2_1_2,2022/9/10,17:00,15,15
���X�X����,2_1_2,2022/9/10,18:00,11,11
���X�X����,2_1_2,2022/9/10,19:00,2,2
���X�X����,2_1_2,2022/9/10,20:00,10,10
���X�X����,2_1_2,2022/9/10,21:00,3,3
���X�X����,2_1_2,2022/9/10,22:00,1,1
���X�X����,2_1_2,2022/9/10,23:00,2,2
���X�X����,2_1_2,2022/9/11,0:00,2,2
���X�X����,2_1_2,2022/9/11,1:00,0,0
���X�X����,2_1_2,2022/9/11,2:00,1,1
���X�X����,2_1_2,2022/9/11,3:00,0,0
���X�X����,2_1_2,2022/9/11,4:00,0,0
���X�X����,2_1_2,2022/9/11,5:00,0,0
���X�X����,2_1_2,2022/9/11,6:00,3,3
���X�X����,2_1_2,2022/9/11,7:00,2,2
���X�X����,2_1_2,2022/9/11,8:00,1,1
���X�X����,2_1_2,2022/9/11,9:00,6,6
���X�X����,2_1_2,2022/9/11,10:00,13,13
���X�X����,2_1_2,2022/9/11,11:00,10,10
���X�X����,2_1_2,2022/9/11,12:00,8,8
���X�X����,2_1_2,2022/9/11,13:00,22,22
���X�X����,2_1_2,2022/9/11,14:00,12,12
���X�X����,2_1_2,2022/9/11,15:00,12,12
���X�X����,2_1_2,2022/9/11,16:00,13,13
���X�X����,2_1_2,2022/9/11,17:00,8,8
���X�X����,2_1_2,2022/9/11,18:00,7,7
���X�X����,2_1_2,2022/9/11,19:00,5,5
���X�X����,2_1_2,2022/9/11,20:00,16,16
���X�X����,2_1_2,2022/9/11,21:00,4,4
���X�X����,2_1_2,2022/9/11,22:00,2,2
���X�X����,2_1_2,2022/9/11,23:00,1,1
���X�X����,2_1_2,2022/9/12,0:00,3,3
���X�X����,2_1_2,2022/9/12,1:00,0,0
���X�X����,2_1_2,2022/9/12,2:00,1,1
���X�X����,2_1_2,2022/9/12,3:00,0,0
���X�X����,2_1_2,2022/9/12,4:00,0,0
���X�X����,2_1_2,2022/9/12,5:00,0,0
���X�X����,2_1_2,2022/9/12,6:00,5,5
���X�X����,2_1_2,2022/9/12,7:00,3,3
���X�X����,2_1_2,2022/9/12,8:00,7,7
���X�X����,2_1_2,2022/9/12,9:00,4,4
���X�X����,2_1_2,2022/9/12,10:00,9,9
���X�X����,2_1_2,2022/9/12,11:00,7,7
���X�X����,2_1_2,2022/9/12,12:00,15,15
���X�X����,2_1_2,2022/9/12,13:00,8,8
���X�X����,2_1_2,2022/9/12,14:00,10,10
���X�X����,2_1_2,2022/9/12,15:00,11,11
���X�X����,2_1_2,2022/9/12,16:00,12,12
���X�X����,2_1_2,2022/9/12,17:00,7,7
���X�X����,2_1_2,2022/9/12,18:00,12,12
���X�X����,2_1_2,2022/9/12,19:00,6,6
���X�X����,2_1_2,2022/9/12,20:00,4,4
���X�X����,2_1_2,2022/9/12,21:00,6,6
���X�X����,2_1_2,2022/9/12,22:00,2,2
���X�X����,2_1_2,2022/9/12,23:00,2,2
���X�X����,2_1_2,2022/9/13,0:00,0,0
���X�X����,2_1_2,2022/9/13,1:00,0,0
���X�X����,2_1_2,2022/9/13,2:00,0,0
���X�X����,2_1_2,2022/9/13,3:00,0,0
���X�X����,2_1_2,2022/9/13,4:00,0,0
���X�X����,2_1_2,2022/9/13,5:00,1,1
���X�X����,2_1_2,2022/9/13,6:00,1,1
���X�X����,2_1_2,2022/9/13,7:00,5,5
���X�X����,2_1_2,2022/9/13,8:00,7,7
���X�X����,2_1_2,2022/9/13,9:00,9,9
���X�X����,2_1_2,2022/9/13,10:00,7,7
���X�X����,2_1_2,2022/9/13,11:00,10,10
���X�X����,2_1_2,2022/9/13,12:00,7,7
���X�X����,2_1_2,2022/9/13,13:00,5,5
���X�X����,2_1_2,2022/9/13,14:00,4,4
���X�X����,2_1_2,2022/9/13,15:00,7,7
���X�X����,2_1_2,2022/9/13,16:00,1,1
���X�X����,2_1_2,2022/9/13,17:00,16,16
���X�X����,2_1_2,2022/9/13,18:00,5,5
���X�X����,2_1_2,2022/9/13,19:00,9,9
���X�X����,2_1_2,2022/9/13,20:00,3,3
���X�X����,2_1_2,2022/9/13,21:00,3,3
���X�X����,2_1_2,2022/9/13,22:00,0,0
���X�X����,2_1_2,2022/9/13,23:00,1,1
���X�X����,2_1_2,2022/9/14,0:00,0,0
���X�X����,2_1_2,2022/9/14,1:00,0,0
���X�X����,2_1_2,2022/9/14,2:00,0,0
���X�X����,2_1_2,2022/9/14,3:00,0,0
���X�X����,2_1_2,2022/9/14,4:00,0,0
���X�X����,2_1_2,2022/9/14,5:00,1,1
���X�X����,2_1_2,2022/9/14,6:00,4,4
���X�X����,2_1_2,2022/9/14,7:00,9,9
���X�X����,2_1_2,2022/9/14,8:00,2,2
���X�X����,2_1_2,2022/9/14,9:00,10,10
���X�X����,2_1_2,2022/9/14,10:00,2,2
���X�X����,2_1_2,2022/9/14,11:00,33,33
���X�X����,2_1_2,2022/9/14,12:00,8,8
���X�X����,2_1_2,2022/9/14,13:00,8,8
���X�X����,2_1_2,2022/9/14,14:00,3,3
���X�X����,2_1_2,2022/9/14,15:00,10,10
���X�X����,2_1_2,2022/9/14,16:00,10,10
���X�X����,2_1_2,2022/9/14,17:00,10,10
���X�X����,2_1_2,2022/9/14,18:00,13,13
���X�X����,2_1_2,2022/9/14,19:00,9,9
���X�X����,2_1_2,2022/9/14,20:00,7,7
���X�X����,2_1_2,2022/9/14,21:00,0,0
���X�X����,2_1_2,2022/9/14,22:00,0,0
���X�X����,2_1_2,2022/9/14,23:00,0,0
���X�X����,2_1_2,2022/9/15,0:00,0,0
���X�X����,2_1_2,2022/9/15,1:00,0,0
���X�X����,2_1_2,2022/9/15,2:00,0,0
���X�X����,2_1_2,2022/9/15,3:00,0,0
���X�X����,2_1_2,2022/9/15,4:00,0,0
���X�X����,2_1_2,2022/9/15,5:00,1,1
���X�X����,2_1_2,2022/9/15,6:00,3,3
���X�X����,2_1_2,2022/9/15,7:00,4,4
���X�X����,2_1_2,2022/9/15,8:00,0,0
���X�X����,2_1_2,2022/9/15,9:00,5,5
���X�X����,2_1_2,2022/9/15,10:00,21,21
���X�X����,2_1_2,2022/9/15,11:00,7,7
���X�X����,2_1_2,2022/9/15,12:00,11,11
���X�X����,2_1_2,2022/9/15,13:00,5,5
���X�X����,2_1_2,2022/9/15,14:00,12,12
���X�X����,2_1_2,2022/9/15,15:00,8,8
���X�X����,2_1_2,2022/9/15,16:00,6,6
���X�X����,2_1_2,2022/9/15,17:00,9,9
���X�X����,2_1_2,2022/9/15,18:00,6,6
���X�X����,2_1_2,2022/9/15,19:00,4,4
���X�X����,2_1_2,2022/9/15,20:00,9,9
���X�X����,2_1_2,2022/9/15,21:00,5,5
���X�X����,2_1_2,2022/9/15,22:00,0,0
���X�X����,2_1_2,2022/9/15,23:00,0,0
���X�X����,2_1_2,2022/9/16,0:00,0,0
���X�X����,2_1_2,2022/9/16,1:00,0,0
���X�X����,2_1_2,2022/9/16,2:00,0,0
���X�X����,2_1_2,2022/9/16,3:00,0,0
���X�X����,2_1_2,2022/9/16,4:00,0,0
���X�X����,2_1_2,2022/9/16,5:00,0,0
���X�X����,2_1_2,2022/9/16,6:00,2,2
���X�X����,2_1_2,2022/9/16,7:00,6,6
���X�X����,2_1_2,2022/9/16,8:00,4,4
���X�X����,2_1_2,2022/9/16,9:00,6,6
���X�X����,2_1_2,2022/9/16,10:00,9,9
���X�X����,2_1_2,2022/9/16,11:00,10,10
���X�X����,2_1_2,2022/9/16,12:00,8,8
���X�X����,2_1_2,2022/9/16,13:00,8,8
���X�X����,2_1_2,2022/9/16,14:00,6,6
���X�X����,2_1_2,2022/9/16,15:00,9,9
���X�X����,2_1_2,2022/9/16,16:00,12,12
���X�X����,2_1_2,2022/9/16,17:00,28,28
���X�X����,2_1_2,2022/9/16,18:00,14,14
���X�X����,2_1_2,2022/9/16,19:00,23,23
���X�X����,2_1_2,2022/9/16,20:00,11,11
���X�X����,2_1_2,2022/9/16,21:00,20,20
���X�X����,2_1_2,2022/9/16,22:00,4,4
���X�X����,2_1_2,2022/9/16,23:00,3,3
���X�X����,2_1_2,2022/9/17,0:00,0,0
���X�X����,2_1_2,2022/9/17,1:00,0,0
���X�X����,2_1_2,2022/9/17,2:00,0,0
���X�X����,2_1_2,2022/9/17,3:00,0,0
���X�X����,2_1_2,2022/9/17,4:00,0,0
���X�X����,2_1_2,2022/9/17,5:00,0,0
���X�X����,2_1_2,2022/9/17,6:00,9,9
���X�X����,2_1_2,2022/9/17,7:00,3,3
���X�X����,2_1_2,2022/9/17,8:00,2,2
���X�X����,2_1_2,2022/9/17,9:00,9,9
���X�X����,2_1_2,2022/9/17,10:00,19,19
���X�X����,2_1_2,2022/9/17,11:00,22,22
���X�X����,2_1_2,2022/9/17,12:00,17,17
���X�X����,2_1_2,2022/9/17,13:00,28,28
���X�X����,2_1_2,2022/9/17,14:00,16,16
���X�X����,2_1_2,2022/9/17,15:00,21,21
���X�X����,2_1_2,2022/9/17,16:00,23,23
���X�X����,2_1_2,2022/9/17,17:00,28,28
���X�X����,2_1_2,2022/9/17,18:00,12,12
���X�X����,2_1_2,2022/9/17,19:00,13,13
���X�X����,2_1_2,2022/9/17,20:00,14,14
���X�X����,2_1_2,2022/9/17,21:00,12,12
���X�X����,2_1_2,2022/9/17,22:00,0,0
���X�X����,2_1_2,2022/9/17,23:00,1,1
���X�X����,2_1_2,2022/9/18,0:00,1,1
���X�X����,2_1_2,2022/9/18,1:00,3,3
���X�X����,2_1_2,2022/9/18,2:00,0,0
���X�X����,2_1_2,2022/9/18,3:00,0,0
���X�X����,2_1_2,2022/9/18,4:00,0,0
���X�X����,2_1_2,2022/9/18,5:00,0,0
���X�X����,2_1_2,2022/9/18,6:00,2,2
���X�X����,2_1_2,2022/9/18,7:00,10,10
���X�X����,2_1_2,2022/9/18,8:00,6,6
���X�X����,2_1_2,2022/9/18,9:00,5,5
���X�X����,2_1_2,2022/9/18,10:00,11,11
���X�X����,2_1_2,2022/9/18,11:00,14,14
���X�X����,2_1_2,2022/9/18,12:00,16,16
���X�X����,2_1_2,2022/9/18,13:00,17,17
���X�X����,2_1_2,2022/9/18,14:00,18,18
���X�X����,2_1_2,2022/9/18,15:00,17,17
���X�X����,2_1_2,2022/9/18,16:00,15,15
���X�X����,2_1_2,2022/9/18,17:00,2,2
���X�X����,2_1_2,2022/9/18,18:00,2,2
���X�X����,2_1_2,2022/9/18,19:00,2,2
���X�X����,2_1_2,2022/9/18,20:00,3,3
���X�X����,2_1_2,2022/9/18,21:00,3,3
���X�X����,2_1_2,2022/9/18,22:00,3,3
���X�X����,2_1_2,2022/9/18,23:00,1,1
���X�X����,2_1_2,2022/9/19,0:00,0,0
���X�X����,2_1_2,2022/9/19,1:00,1,1
���X�X����,2_1_2,2022/9/19,2:00,0,0
���X�X����,2_1_2,2022/9/19,3:00,0,0
���X�X����,2_1_2,2022/9/19,4:00,0,0
���X�X����,2_1_2,2022/9/19,5:00,0,0
���X�X����,2_1_2,2022/9/19,6:00,2,2
���X�X����,2_1_2,2022/9/19,7:00,1,1
���X�X����,2_1_2,2022/9/19,8:00,2,2
���X�X����,2_1_2,2022/9/19,9:00,2,2
���X�X����,2_1_2,2022/9/19,10:00,2,2
���X�X����,2_1_2,2022/9/19,11:00,3,3
���X�X����,2_1_2,2022/9/19,12:00,1,1
���X�X����,2_1_2,2022/9/19,13:00,0,0
���X�X����,2_1_2,2022/9/19,14:00,2,2
���X�X����,2_1_2,2022/9/19,15:00,3,3
���X�X����,2_1_2,2022/9/19,16:00,2,2
���X�X����,2_1_2,2022/9/19,17:00,6,6
���X�X����,2_1_2,2022/9/19,18:00,4,4
���X�X����,2_1_2,2022/9/19,19:00,2,2
���X�X����,2_1_2,2022/9/19,20:00,2,2
���X�X����,2_1_2,2022/9/19,21:00,0,0
���X�X����,2_1_2,2022/9/19,22:00,0,0
���X�X����,2_1_2,2022/9/19,23:00,1,1
���X�X����,2_1_2,2022/9/20,0:00,2,2
���X�X����,2_1_2,2022/9/20,1:00,1,1
���X�X����,2_1_2,2022/9/20,2:00,0,0
���X�X����,2_1_2,2022/9/20,3:00,0,0
���X�X����,2_1_2,2022/9/20,4:00,0,0
���X�X����,2_1_2,2022/9/20,5:00,0,0
���X�X����,2_1_2,2022/9/20,6:00,2,2
���X�X����,2_1_2,2022/9/20,7:00,7,7
���X�X����,2_1_2,2022/9/20,8:00,4,4
���X�X����,2_1_2,2022/9/20,9:00,10,10
���X�X����,2_1_2,2022/9/20,10:00,12,12
���X�X����,2_1_2,2022/9/20,11:00,5,5
���X�X����,2_1_2,2022/9/20,12:00,10,10
���X�X����,2_1_2,2022/9/20,13:00,10,10
���X�X����,2_1_2,2022/9/20,14:00,6,6
���X�X����,2_1_2,2022/9/20,15:00,9,9
���X�X����,2_1_2,2022/9/20,16:00,6,6
���X�X����,2_1_2,2022/9/20,17:00,13,13
���X�X����,2_1_2,2022/9/20,18:00,11,11
���X�X����,2_1_2,2022/9/20,19:00,12,12
���X�X����,2_1_2,2022/9/20,20:00,9,9
���X�X����,2_1_2,2022/9/20,21:00,5,5
���X�X����,2_1_2,2022/9/20,22:00,3,3
���X�X����,2_1_2,2022/9/20,23:00,0,0
���X�X����,2_1_2,2022/9/21,0:00,0,0
���X�X����,2_1_2,2022/9/21,1:00,0,0
���X�X����,2_1_2,2022/9/21,2:00,0,0
���X�X����,2_1_2,2022/9/21,3:00,0,0
���X�X����,2_1_2,2022/9/21,4:00,1,1
���X�X����,2_1_2,2022/9/21,5:00,0,0
���X�X����,2_1_2,2022/9/21,6:00,6,6
���X�X����,2_1_2,2022/9/21,7:00,7,7
���X�X����,2_1_2,2022/9/21,8:00,8,8
���X�X����,2_1_2,2022/9/21,9:00,9,9
���X�X����,2_1_2,2022/9/21,10:00,19,19
���X�X����,2_1_2,2022/9/21,11:00,8,8
���X�X����,2_1_2,2022/9/21,12:00,8,8
���X�X����,2_1_2,2022/9/21,13:00,9,9
���X�X����,2_1_2,2022/9/21,14:00,17,17
���X�X����,2_1_2,2022/9/21,15:00,8,8
���X�X����,2_1_2,2022/9/21,16:00,11,11
���X�X����,2_1_2,2022/9/21,17:00,12,12
���X�X����,2_1_2,2022/9/21,18:00,11,11
���X�X����,2_1_2,2022/9/21,19:00,6,6
���X�X����,2_1_2,2022/9/21,20:00,10,10
���X�X����,2_1_2,2022/9/21,21:00,2,2
���X�X����,2_1_2,2022/9/21,22:00,0,0
���X�X����,2_1_2,2022/9/21,23:00,0,0
���X�X����,2_1_2,2022/9/22,0:00,0,0
���X�X����,2_1_2,2022/9/22,1:00,0,0
���X�X����,2_1_2,2022/9/22,2:00,0,0
���X�X����,2_1_2,2022/9/22,3:00,0,0
���X�X����,2_1_2,2022/9/22,4:00,0,0
���X�X����,2_1_2,2022/9/22,5:00,0,0
���X�X����,2_1_2,2022/9/22,6:00,3,3
���X�X����,2_1_2,2022/9/22,7:00,3,3
���X�X����,2_1_2,2022/9/22,8:00,7,7
���X�X����,2_1_2,2022/9/22,9:00,12,12
���X�X����,2_1_2,2022/9/22,10:00,7,7
���X�X����,2_1_2,2022/9/22,11:00,17,17
���X�X����,2_1_2,2022/9/22,12:00,17,17
���X�X����,2_1_2,2022/9/22,13:00,19,19
���X�X����,2_1_2,2022/9/22,14:00,32,32
���X�X����,2_1_2,2022/9/22,15:00,12,12
���X�X����,2_1_2,2022/9/22,16:00,12,12
���X�X����,2_1_2,2022/9/22,17:00,19,19
���X�X����,2_1_2,2022/9/22,18:00,6,6
���X�X����,2_1_2,2022/9/22,19:00,7,7
���X�X����,2_1_2,2022/9/22,20:00,8,8
���X�X����,2_1_2,2022/9/22,21:00,2,2
���X�X����,2_1_2,2022/9/22,22:00,1,1
���X�X����,2_1_2,2022/9/22,23:00,0,0
���X�X����,2_1_2,2022/9/23,0:00,0,0
���X�X����,2_1_2,2022/9/23,1:00,0,0
���X�X����,2_1_2,2022/9/23,2:00,1,1
���X�X����,2_1_2,2022/9/23,3:00,0,0
���X�X����,2_1_2,2022/9/23,4:00,0,0
���X�X����,2_1_2,2022/9/23,5:00,0,0
���X�X����,2_1_2,2022/9/23,6:00,4,4
���X�X����,2_1_2,2022/9/23,7:00,2,2
���X�X����,2_1_2,2022/9/23,8:00,7,7
���X�X����,2_1_2,2022/9/23,9:00,8,8
���X�X����,2_1_2,2022/9/23,10:00,33,33
���X�X����,2_1_2,2022/9/23,11:00,20,20
���X�X����,2_1_2,2022/9/23,12:00,29,29
���X�X����,2_1_2,2022/9/23,13:00,24,24
���X�X����,2_1_2,2022/9/23,14:00,26,26
���X�X����,2_1_2,2022/9/23,15:00,14,14
���X�X����,2_1_2,2022/9/23,16:00,17,17
���X�X����,2_1_2,2022/9/23,17:00,43,43
���X�X����,2_1_2,2022/9/23,18:00,8,8
���X�X����,2_1_2,2022/9/23,19:00,2,2
���X�X����,2_1_2,2022/9/23,20:00,4,4
���X�X����,2_1_2,2022/9/23,21:00,2,2
���X�X����,2_1_2,2022/9/23,22:00,0,0
���X�X����,2_1_2,2022/9/23,23:00,0,0
���X�X����,2_1_2,2022/9/24,0:00,0,0
���X�X����,2_1_2,2022/9/24,1:00,0,0
���X�X����,2_1_2,2022/9/24,2:00,0,0
���X�X����,2_1_2,2022/9/24,3:00,0,0
���X�X����,2_1_2,2022/9/24,4:00,0,0
���X�X����,2_1_2,2022/9/24,5:00,0,0
���X�X����,2_1_2,2022/9/24,6:00,9,9
���X�X����,2_1_2,2022/9/24,7:00,6,6
���X�X����,2_1_2,2022/9/24,8:00,15,15
���X�X����,2_1_2,2022/9/24,9:00,21,21
���X�X����,2_1_2,2022/9/24,10:00,27,27
���X�X����,2_1_2,2022/9/24,11:00,22,22
���X�X����,2_1_2,2022/9/24,12:00,17,17
���X�X����,2_1_2,2022/9/24,13:00,29,29
���X�X����,2_1_2,2022/9/24,14:00,29,29
���X�X����,2_1_2,2022/9/24,15:00,18,18
���X�X����,2_1_2,2022/9/24,16:00,27,27
���X�X����,2_1_2,2022/9/24,17:00,16,16
���X�X����,2_1_2,2022/9/24,18:00,21,21
���X�X����,2_1_2,2022/9/24,19:00,9,9
���X�X����,2_1_2,2022/9/24,20:00,7,7
���X�X����,2_1_2,2022/9/24,21:00,12,12
���X�X����,2_1_2,2022/9/24,22:00,1,1
���X�X����,2_1_2,2022/9/24,23:00,1,1
���X�X����,2_1_2,2022/9/25,0:00,1,1
���X�X����,2_1_2,2022/9/25,1:00,0,0
���X�X����,2_1_2,2022/9/25,2:00,1,1
���X�X����,2_1_2,2022/9/25,3:00,0,0
���X�X����,2_1_2,2022/9/25,4:00,1,1
���X�X����,2_1_2,2022/9/25,5:00,0,0
���X�X����,2_1_2,2022/9/25,6:00,4,4
���X�X����,2_1_2,2022/9/25,7:00,2,2
���X�X����,2_1_2,2022/9/25,8:00,10,10
���X�X����,2_1_2,2022/9/25,9:00,22,22
���X�X����,2_1_2,2022/9/25,10:00,15,15
���X�X����,2_1_2,2022/9/25,11:00,12,12
���X�X����,2_1_2,2022/9/25,12:00,29,29
���X�X����,2_1_2,2022/9/25,13:00,26,26
���X�X����,2_1_2,2022/9/25,14:00,21,21
���X�X����,2_1_2,2022/9/25,15:00,26,26
���X�X����,2_1_2,2022/9/25,16:00,22,22
���X�X����,2_1_2,2022/9/25,17:00,15,15
���X�X����,2_1_2,2022/9/25,18:00,14,14
���X�X����,2_1_2,2022/9/25,19:00,12,12
���X�X����,2_1_2,2022/9/25,20:00,10,10
���X�X����,2_1_2,2022/9/25,21:00,3,3
���X�X����,2_1_2,2022/9/25,22:00,2,2
���X�X����,2_1_2,2022/9/25,23:00,1,1
���X�X����,2_1_2,2022/9/26,0:00,1,1
���X�X����,2_1_2,2022/9/26,1:00,0,0
���X�X����,2_1_2,2022/9/26,2:00,0,0
���X�X����,2_1_2,2022/9/26,3:00,0,0
���X�X����,2_1_2,2022/9/26,4:00,0,0
���X�X����,2_1_2,2022/9/26,5:00,0,0
���X�X����,2_1_2,2022/9/26,6:00,4,4
���X�X����,2_1_2,2022/9/26,7:00,7,7
���X�X����,2_1_2,2022/9/26,8:00,7,7
���X�X����,2_1_2,2022/9/26,9:00,4,4
���X�X����,2_1_2,2022/9/26,10:00,5,5
���X�X����,2_1_2,2022/9/26,11:00,10,10
���X�X����,2_1_2,2022/9/26,12:00,9,9
���X�X����,2_1_2,2022/9/26,13:00,10,10
���X�X����,2_1_2,2022/9/26,14:00,10,10
���X�X����,2_1_2,2022/9/26,15:00,12,12
���X�X����,2_1_2,2022/9/26,16:00,9,9
���X�X����,2_1_2,2022/9/26,17:00,17,17
���X�X����,2_1_2,2022/9/26,18:00,6,6
���X�X����,2_1_2,2022/9/26,19:00,12,12
���X�X����,2_1_2,2022/9/26,20:00,7,7
���X�X����,2_1_2,2022/9/26,21:00,3,3
���X�X����,2_1_2,2022/9/26,22:00,2,2
���X�X����,2_1_2,2022/9/26,23:00,1,1
���X�X����,2_1_2,2022/9/27,0:00,0,0
���X�X����,2_1_2,2022/9/27,1:00,0,0
���X�X����,2_1_2,2022/9/27,2:00,0,0
���X�X����,2_1_2,2022/9/27,3:00,0,0
���X�X����,2_1_2,2022/9/27,4:00,0,0
���X�X����,2_1_2,2022/9/27,5:00,0,0
���X�X����,2_1_2,2022/9/27,6:00,3,3
���X�X����,2_1_2,2022/9/27,7:00,3,3
���X�X����,2_1_2,2022/9/27,8:00,7,7
���X�X����,2_1_2,2022/9/27,9:00,2,2